Flag for Argentina Weather past 2 weeks in Resistencia, Chaco, Argentina

Now
61 °F

Passing clouds.


Feels Like: 61 °F
Forecast: 60 / 78 °F
Wind: 10 mph from South

Location: Resistencia Aero.

Current Time: Sep 1, 2015 at 10:25:32 PM

Latest Report: Sep 1, 2015 at 10:00 PM


Visibility: N/A

Pressure: 30.12 "Hg

Humidity: 77%

Dew point: 54 °F

Location of ResistenciaLocation

Historic Weather in Resistencia — Graph

°F

Resistencia temperature yesterday

Maximum temperature yesterday: 97 °F (at 2:00 PM)
Minimum temperature yesterday: 64 °F (at 5:00 AM)
Average temperature yesterday: 82 °F

Past Weeks' High & Low Weather Summary

 TemperatureHumidityPressure
High97 °F (Aug 31, 2:00 PM)100% (Aug 17, 9:00 PM)30.18 "Hg (Aug 17, 9:00 PM)
Low46 °F (Aug 21, 5:00 AM)20% (Aug 27, 2:00 PM)29.65 "Hg (Aug 22, 3:00 PM)
Average67 °F72%29.96 "Hg
* Reported Aug 17 9:00 PM — Sep 1 9:00 PM, Resistencia, Weather by CustomWeather, © 2015

Note: Actual official high and low records may vary slightly from our data, if they occured in-between our weather recording intervals... More about our weather records

Advertising

Resistencia weather history for previous 24 hours

 ConditionsComfort  
Time TempWeatherWind HumidityBarometerVisibility
9:00 PM
Tue, Sep 1
63 °FOvercast.N/A77%30.12 "HgN/A
8:00 PM64 °FOvercast.10 mph73%30.12 "HgN/A
6:00 PM66 °FPassing clouds.14 mph73%30.09 "Hg3 mi
5:00 PM66 °FMostly cloudy.12 mph78%30.09 "Hg5 mi
4:00 PM64 °FOvercast.13 mph83%30.09 "HgN/A
3:00 PM68 °FMostly cloudy.13 mph69%30.09 "Hg5 mi
2:00 PM68 °FMostly cloudy.13 mph69%30.12 "Hg5 mi
1:00 PM68 °FMostly cloudy.14 mph69%30.15 "Hg5 mi
12:00 PM64 °FMostly cloudy.16 mph73%30.15 "Hg5 mi
11:00 AM64 °FMostly cloudy.16 mph73%30.15 "Hg5 mi
10:00 AM64 °FMostly cloudy.16 mph78%30.15 "Hg5 mi
9:00 AM66 °FMostly cloudy.18 mph78%30.12 "Hg5 mi
8:00 AM68 °FMostly cloudy.20 mph73%30.09 "Hg3 mi
7:00 AM70 °FMostly cloudy.13 mph83%30.04 "Hg5 mi
6:00 AM72 °FOvercast.13 mph83%30.04 "HgN/A
5:00 AM72 °FMostly cloudy.14 mph88%30.01 "HgN/A
4:00 AM75 °FPassing clouds.12 mph78%29.98 "HgN/A
3:00 AM77 °FPassing clouds.12 mph79%29.98 "HgN/A
2:00 AM79 °FPassing clouds.6 mph79%29.98 "HgN/A
12:00 AM79 °FClear.2 mph74%29.92 "Hg10 mi
11:00 PM
Mon, Aug 31
79 °FPassing clouds.3 mph70%29.92 "HgN/A
10:00 PM81 °FPassing clouds.6 mph66%29.89 "HgN/A
Weather by CustomWeather, © 2015

See weather overviewHow to use our weather pages